N3WAX-1 Weather Reports


Display with metric or nautical units.
time (UTC)temp
F
wind
direction
speed
MPH
gust
MPH
rain 1hr
in
rain 24hr
in
rain mn
in
humidity
%
barometer
mb
20260510142019 69 205 5.0 10.0 0.00 0.00 0.00 71 1013.5
20260510141519 69 197 5.0 10.0 0.00 0.00 0.00 70 1013.5
20260510141019 69 223 5.0 10.0 0.00 0.00 0.00 73 1013.4
20260510140520 68 208 6.0 10.0 0.00 0.00 0.00 74 1013.6
20260510140019 68 198 6.0 11.0 0.00 0.00 0.00 73 1013.6
20260510135519 68 193 5.0 11.0 0.00 0.00 0.00 74 1013.5
20260510135018 68 182 4.0 11.0 0.00 0.00 0.00 75 1013.5
20260510135008 67 169 4.0 11.0 0.00 0.00 0.00 76 1013.4
20260510134505 67 202 3.0 10.0 0.00 0.00 0.00 79 1013.4
20260510133520 66 114 2.0 6.0 0.00 0.00 0.00 81 1013.4
20260510133016 66 181 2.0 5.0 0.00 0.00 0.00 85 1013.3
20260510132515 65 125 2.0 6.0 0.00 0.00 0.00 84 1013.2
20260510132014 64 116 2.0 6.0 0.00 0.00 0.00 86 1013.5
20260510131516 64 174 1.0 6.0 0.00 0.00 0.00 88 1013.6
20260510131014 63 190 0.0 2.0 0.00 0.00 0.00 90 1013.5
20260510130516 62 138 0.0 2.0 0.00 0.00 0.00 91 1013.6
20260510130013 62 159 0.0 2.0 0.00 0.00 0.00 94 1013.6
20260510125514 61 213 0.0 2.0 0.00 0.00 0.00 95 1013.5
20260510125010 61 184 0.0 3.0 0.00 0.00 0.00 96 1013.5
20260510124513 60 222 0.0 3.0 0.00 0.00 0.00 97 1013.5
20260510124002 59 246 0.0 4.0 0.00 0.00 0.00 98 1013.5
20260510123455 58 224 0.0 4.0 0.00 0.00 0.00 98 1013.4
20260510122950 58 259 0.0 2.0 0.00 0.00 0.00 98 1013.4
20260510122439 57 259 0.0 2.0 0.00 0.00 0.00 98 1013.3
20260510122153 57 259 0.0 2.0 0.00 0.00 0.00 98 1013.3
20260510121427 57 259 0.0 1.0 0.00 0.00 0.00 98 1013.3
20260510121140 56 38 0.0 1.0 0.00 0.00 0.00 98 1013.2
20260510120412 56 38 0.0 1.0 0.00 0.00 0.00 98 1013.1
20260510115906 56 38 0.0 0.0 0.00 0.00 0.00 98 1013.1
20260510115355 55 38 0.0 0.0 0.00 0.00 0.00 98 1013.0
20260510114850 54 38 0.0 1.0 0.00 0.00 0.00 98 1012.9
20260510114344 54 38 0.0 1.0 0.00 0.00 0.00 98 1012.8
20260510113834 54 38 0.0 1.0 0.00 0.00 0.00 98 1012.7
20260510113327 54 38 0.0 1.0 0.00 0.00 0.00 98 1012.7
20260510112822 53 38 0.0 2.0 0.00 0.00 0.00 98 1012.7
20260510112312 53 38 0.0 2.0 0.00 0.00 0.00 98 1012.6
20260510111806 52 38 1.0 2.0 0.00 0.00 0.00 98 1012.5
20260510111259 52 38 1.0 3.0 0.00 0.00 0.00 98 1012.5
20260510110750 52 311 1.0 3.0 0.00 0.00 0.00 98 1012.3
20260510110243 52 311 1.0 4.0 0.00 0.00 0.00 98 1012.5
20260510105737 52 311 2.0 4.0 0.00 0.00 0.00 98 1012.6
20260510105227 51 293 1.0 4.0 0.00 0.00 0.00 98 1012.7
20260510104721 50 282 2.0 8.0 0.00 0.00 0.00 98 1012.6
20260510104216 49 291 2.0 8.0 0.00 0.00 0.00 98 1012.6
20260510103705 49 253 1.0 4.0 0.00 0.00 0.00 98 1012.5
20260510103159 50 34 1.0 3.0 0.00 0.00 0.00 98 1012.2
20260510102653 49 34 1.0 2.0 0.00 0.00 0.00 98 1012.1
20260510102407 49 34 0.0 1.0 0.00 0.00 0.00 98 1012.0
20260510101637 48 34 0.0 0.0 0.00 0.00 0.00 98 1012.0
20260510101354 48 34 0.0 0.0 0.00 0.00 0.00 98 1011.8
20260510100622 48 34 0.0 1.0 0.00 0.00 0.00 98 1011.9
20260510100115 48 34 0.0 3.0 0.00 0.00 0.00 98 1011.7
20260510095835 48 34 0.0 3.0 0.00 0.00 0.00 98 1011.5
20260510095059 48 95 0.0 0.0 0.00 0.00 0.00 98 1011.4
20260510094553 48 95 0.0 0.0 0.00 0.00 0.00 98 1011.6
20260510094047 48 95 0.0 0.0 0.00 0.00 0.00 97 1011.6
20260510093538 48 95 0.0 0.0 0.00 0.00 0.00 97 1011.6
20260510093031 49 84 0.0 0.0 0.00 0.00 0.00 97 1011.6
20260510092525 49 84 0.0 0.0 0.00 0.00 0.00 98 1011.5
20260510092016 49 84 0.0 0.0 0.00 0.00 0.00 97 1011.3
20260510091510 49 84 0.0 0.0 0.00 0.00 0.00 97 1011.4
20260510091013 49 84 0.0 0.0 0.00 0.00 0.00 97 1011.4
20260510090505 49 84 0.0 0.0 0.00 0.00 0.00 97 1011.4
20260510090006 49 84 0.0 0.0 0.00 0.00 0.00 97 1011.4
20260510085505 49 84 1.0 4.0 0.00 0.00 0.00 97 1011.5
20260510085005 50 84 1.0 4.0 0.00 0.00 0.00 97 1011.4
20260510084503 50 71 2.0 7.0 0.00 0.00 0.00 97 1011.4
20260510084001 50 42 2.0 7.0 0.00 0.00 0.00 98 1011.4
20260510083502 51 333 3.0 9.0 0.00 0.00 0.00 98 1011.4
20260510083005 51 240 4.0 11.0 0.00 0.00 0.00 98 1011.9
20260510082726 51 76 4.0 14.0 0.00 0.00 0.00 98 1011.2
20260510081959 51 303 4.0 14.0 0.00 0.00 0.00 98 1011.4
20260510081500 50 282 5.0 16.0 0.00 0.00 0.00 98 1011.9
20260510081000 49 263 6.0 17.0 0.00 0.00 0.00 98 1011.7
20260510080501 49 61 3.0 17.0 0.00 0.00 0.00 97 1011.0
20260510080447 48 246 0.0 2.0 0.00 0.00 0.00 97 1010.9
20260510075449 48 246 1.0 2.0 0.00 0.00 0.00 97 1010.9
20260510074945 48 246 0.0 2.0 0.00 0.00 0.00 98 1010.9
20260510074444 48 246 1.0 2.0 0.00 0.00 0.00 97 1011.1
20260510073944 48 246 1.0 3.0 0.00 0.00 0.00 98 1011.0
20260510073446 48 246 1.0 4.0 0.00 0.00 0.00 97 1011.0
20260510072944 48 263 1.0 4.0 0.00 0.00 0.00 97 1011.1
20260510072444 48 45 0.0 2.0 0.00 0.00 0.00 97 1010.9
20260510071944 49 45 0.0 2.0 0.00 0.00 0.00 97 1010.8
20260510071444 48 45 0.0 0.0 0.00 0.00 0.00 98 1010.7
20260510070944 48 45 0.0 0.0 0.00 0.00 0.00 97 1010.7
20260510070444 48 302 0.0 0.0 0.00 0.00 0.00 97 1010.7
20260510065945 48 302 0.0 0.0 0.00 0.00 0.00 97 1010.7
20260510065445 48 302 0.0 0.0 0.00 0.00 0.00 97 1010.7
20260510064940 48 302 0.0 1.0 0.00 0.00 0.00 97 1010.5
20260510064440 49 302 0.0 2.0 0.00 0.00 0.00 97 1010.5
20260510063941 49 38 1.0 2.0 0.00 0.00 0.00 97 1010.5
20260510063439 49 38 1.0 2.0 0.00 0.00 0.00 97 1010.4
20260510062941 49 73 1.0 2.0 0.00 0.00 0.00 97 1010.4
20260510062441 49 73 1.0 2.0 0.00 0.00 0.00 97 1010.4
20260510061941 49 73 0.0 2.0 0.00 0.00 0.00 97 1010.5
20260510061441 49 53 0.0 0.0 0.00 0.00 0.00 97 1010.5
20260510060940 49 53 0.0 2.0 0.00 0.00 0.00 97 1010.5
20260510060440 50 53 1.0 2.0 0.00 0.00 0.00 97 1010.5
20260510060202 50 53 1.0 2.0 0.00 0.00 0.00 97 1010.5
20260510055442 50 53 1.0 2.0 0.00 0.00 0.00 97 1010.7
20260510054944 50 53 2.0 3.0 0.00 0.00 0.00 97 1010.6
20260510054442 50 53 2.0 3.0 0.00 0.00 0.00 97 1010.6
20260510054207 50 53 2.0 3.0 0.00 0.00 0.00 97 1010.7
20260510053444 50 58 2.0 3.0 0.00 0.00 0.00 97 1010.7
20260510052933 50 61 2.0 3.0 0.00 0.00 0.00 97 1010.8
20260510052426 50 61 2.0 3.0 0.00 0.00 0.00 97 1010.8
20260510051920 50 61 2.0 3.0 0.00 0.00 0.00 97 1010.9
20260510051634 50 62 2.0 4.0 0.00 0.00 0.00 97 1011.0
20260510050905 50 67 3.0 4.0 0.00 0.00 0.00 97 1010.9
20260510050358 50 53 3.0 5.0 0.00 0.00 0.00 97 1011.0
20260510045849 50 54 3.0 5.0 0.00 0.00 0.00 97 1011.0
20260510045342 50 52 3.0 5.0 0.00 0.00 0.00 97 1011.0
20260510045102 50 46 3.0 5.0 0.00 0.00 0.00 97 1011.0
20260510044326 50 51 3.0 4.0 0.00 0.00 0.00 97 1010.9
20260510043820 50 46 3.0 4.0 0.00 0.00 0.00 97 1011.0
20260510043315 50 47 3.0 4.0 0.00 0.00 0.00 97 1011.0
20260510042804 50 55 3.0 4.0 0.00 0.00 0.00 97 1011.0
20260510042259 49 44 2.0 4.0 0.00 0.00 0.00 97 1011.0
20260510041751 49 40 2.0 4.0 0.00 0.00 0.00 97 1011.1
20260510041240 49 48 2.0 3.0 0.00 0.00 0.00 96 1011.2
20260510040735 49 46 2.0 3.0 0.00 0.00 0.00 96 1011.1
20260510040230 49 46 1.0 2.0 0.00 0.00 0.00 97 1011.1
20260510035719 49 46 1.0 2.0 0.00 0.00 0.00 96 1011.1
20260510035213 49 46 1.0 2.0 0.00 0.00 0.00 96 1011.2
20260510034707 49 46 0.0 2.0 0.00 0.00 0.00 96 1011.2
20260510034427 49 46 0.0 1.0 0.00 0.00 0.00 96 1011.2
20260510033651 49 46 0.0 2.0 0.00 0.00 0.00 96 1011.1
20260510033145 49 46 1.0 2.0 0.00 0.00 0.00 96 1011.2
20260510032854 50 46 1.0 2.0 0.00 0.00 0.00 96 1011.1
20260510032129 50 46 1.0 2.0 0.00 0.00 0.00 96 1011.1
20260510031624 50 46 1.0 2.0 0.00 0.00 0.00 96 1011.0
20260510031558 50 46 0.0 2.0 0.00 0.00 0.00 96 1011.0
20260510030608 50 46 0.0 0.0 0.00 0.00 0.00 96 1011.1
20260510030100 50 46 0.0 2.0 0.00 0.00 0.00 95 1010.9
20260510025549 50 46 0.0 2.0 0.00 0.00 0.00 96 1010.8
20260510025043 50 46 1.0 2.0 0.00 0.00 0.00 95 1010.7
20260510024537 51 46 1.0 2.0 0.00 0.00 0.00 96 1010.7
20260510024254 51 46 2.0 3.0 0.00 0.00 0.00 96 1010.7
20260510023745 51 46 2.0 3.0 0.00 0.00 0.00 95 1010.6
20260510023016 51 46 2.0 3.0 0.00 0.00 0.00 95 1010.7
20260510022505 51 46 1.0 2.0 0.00 0.00 0.00 95 1010.7
20260510022000 51 46 1.0 2.0 0.00 0.00 0.00 95 1010.9
20260510021454 51 46 1.0 2.0 0.00 0.00 0.00 95 1010.8
20260510020944 52 46 2.0 3.0 0.00 0.00 0.00 95 1010.9
20260510020437 52 46 2.0 3.0 0.00 0.00 0.00 95 1010.8
20260510015931 52 46 2.0 4.0 0.00 0.00 0.00 95 1010.7
20260510015421 52 52 2.0 4.0 0.00 0.00 0.00 95 1010.7
20260510015135 52 42 2.0 4.0 0.00 0.00 0.00 95 1010.6
20260510014409 53 54 2.0 4.0 0.00 0.00 0.00 95 1010.6
20260510013859 52 65 3.0 4.0 0.00 0.00 0.00 95 1010.5
20260510013353 52 45 3.0 5.0 0.00 0.00 0.00 94 1010.5
20260510012848 53 46 3.0 5.0 0.00 0.00 0.00 94 1010.5
20260510012338 53 56 2.0 4.0 0.00 0.00 0.00 94 1010.4
20260510011831 53 45 2.0 4.0 0.00 0.00 0.00 94 1010.4
20260510011325 53 45 2.0 4.0 0.00 0.00 0.00 93 1010.5
20260510010815 53 45 2.0 4.0 0.00 0.00 0.00 93 1010.4
20260510010309 53 59 2.0 4.0 0.00 0.00 0.00 93 1010.3
20260510005802 53 32 2.0 3.0 0.00 0.00 0.00 93 1010.2
20260510005257 54 47 2.0 4.0 0.00 0.00 0.00 93 1010.1
20260510004756 54 49 2.0 4.0 0.00 0.00 0.00 92 1010.1
20260510004256 54 47 2.0 5.0 0.00 0.00 0.00 92 1010.1
20260510003756 54 48 2.0 5.0 0.00 0.00 0.00 92 1010.2
20260510003258 54 65 2.0 5.0 0.00 0.00 0.00 92 1010.1
20260510002757 54 67 2.0 5.0 0.00 0.00 0.00 91 1010.1
20260510002255 54 69 2.0 4.0 0.00 0.00 0.00 91 1010.1
20260510002013 54 56 2.0 4.0 0.00 0.00 0.00 90 1010.1
20260510001257 55 49 1.0 4.0 0.00 0.00 0.00 89 1010.0
20260510000759 55 65 0.0 3.0 0.00 0.00 0.00 89 1010.1
20260510000258 56 44 0.0 3.0 0.00 0.00 0.00 89 1010.1
20260509235757 56 69 1.0 4.0 0.00 0.00 0.00 88 1010.1
20260509235257 56 58 1.0 6.0 0.00 0.00 0.00 88 1009.9
20260509234751 57 68 1.0 6.0 0.00 0.00 0.00 87 1010.1
20260509234247 57 70 1.0 4.0 0.00 0.00 0.00 87 1010.2
20260509233748 58 56 2.0 5.0 0.00 0.00 0.00 87 1010.1
20260509233742 58 50 3.0 7.0 0.00 0.00 0.00 86 1010.1
20260509232747 58 60 3.0 7.0 0.00 0.00 0.00 85 1010.0
20260509232508 59 49 2.0 6.0 0.00 0.00 0.00 85 1010.1
20260509231748 59 34 3.0 5.0 0.00 0.00 0.00 84 1010.0
20260509231248 59 43 3.0 5.0 0.00 0.00 0.00 83 1010.1
20260509230748 59 42 2.0 5.0 0.00 0.00 0.00 83 1010.0
20260509230248 60 32 3.0 6.0 0.00 0.00 0.00 83 1009.9
20260509225748 60 48 3.0 6.0 0.00 0.00 0.00 82 1009.9
20260509225247 60 32 3.0 6.0 0.00 0.00 0.00 82 1009.8
20260509225007 60 53 2.0 6.0 0.00 0.00 0.00 82 1009.8
20260509224248 60 49 2.0 6.0 0.00 0.00 0.00 83 1009.8
20260509223748 60 57 2.0 5.0 0.00 0.00 0.00 83 1009.8
20260509223248 60 66 2.0 5.0 0.00 0.00 0.00 83 1009.9
20260509222748 60 46 1.0 4.0 0.00 0.00 0.00 84 1010.0
20260509222248 59 22 1.0 4.0 0.00 0.00 0.00 85 1010.0
20260509221747 59 62 2.0 4.0 0.00 0.00 0.00 84 1010.0
20260509221247 60 69 1.0 4.0 0.00 0.00 0.00 84 1010.0
20260509221016 60 83 0.0 3.0 0.00 0.00 0.00 84 1010.1
20260509220249 59 14 0.0 4.0 0.00 0.00 0.00 85 1010.1
20260509215748 59 5 1.0 4.0 0.00 0.00 0.00 85 1010.1
20260509215247 59 17 1.0 4.0 0.00 0.00 0.00 85 1010.1
20260509214749 59 28 1.0 4.0 0.00 0.00 0.00 86 1009.9
20260509214248 59 5 1.0 4.0 0.00 0.00 0.00 86 1009.9
20260509213749 59 46 1.0 4.0 0.00 0.00 0.00 86 1010.1
20260509213250 59 27 1.0 4.0 0.00 0.00 0.00 86 1010.1
20260509212745 59 288 2.0 4.0 0.00 0.00 0.00 87 1010.1
20260509212237 58 0 1.0 4.0 0.00 0.00 0.00 86 1009.9
20260509211725 58 20 1.0 4.0 0.00 0.00 0.00 86 1009.9
20260509211219 58 0 1.0 4.0 0.00 0.00 0.00 85 1009.9
20260509210713 58 5 1.0 4.0 0.00 0.00 0.00 84 1009.9
20260509210425 58 325 1.0 4.0 0.00 0.00 0.00 84 1009.9
20260509205916 59 307 2.0 5.0 0.00 0.00 0.00 83 1010.2
20260509205150 59 300 2.0 6.0 0.00 0.00 0.00 84 1010.1
20260509204641 59 288 3.0 7.0 0.00 0.00 0.00 84 1010.2
20260509204134 59 240 3.0 7.0 0.00 0.00 0.00 84 1010.1
20260509203628 59 255 1.0 4.0 0.00 0.00 0.00 84 1010.2
20260509203342 59 0 0.0 2.0 0.00 0.00 0.00 84 1010.1
20260509202612 59 30 0.0 2.0 0.00 0.00 0.00 83 1010.1
20260509202106 59 32 0.0 3.0 0.00 0.00 0.00 83 1010.1
20260509201814 59 328 1.0 3.0 0.00 0.00 0.00 83 1010.1
20260509201051 59 11 1.0 6.0 0.00 0.00 0.00 82 1010.2
20260509200544 60 281 2.0 6.0 0.00 0.00 0.00 80 1010.2
20260509200254 60 288 2.0 5.0 0.00 0.00 0.00 80 1010.1
20260509195755 61 246 2.0 5.0 0.00 0.00 0.00 82 1010.0
20260509195022 60 294 3.0 6.0 0.00 0.00 0.00 80 1010.0
20260509194512 60 306 3.0 6.0 0.00 0.00 0.00 81 1010.0
20260509194006 60 313 4.0 8.0 0.00 0.00 0.00 83 1009.9
20260509193500 60 242 4.0 8.0 0.00 0.00 0.00 84 1010.1
20260509193214 60 269 4.0 9.0 0.00 0.00 0.00 86 1010.2
20260509192444 59 257 4.0 9.0 0.00 0.00 0.00 87 1010.3
20260509191939 58 289 4.0 8.0 0.00 0.00 0.00 86 1010.4
20260509191428 58 291 4.0 9.0 0.00 0.00 0.00 85 1010.5
20260509190923 58 248 4.0 11.0 0.00 0.00 0.00 85 1010.7
20260509190417 58 271 5.0 11.0 0.00 0.00 0.00 85 1010.8
20260509185906 58 267 3.0 9.0 0.00 0.00 0.00 86 1010.8
20260509185401 58 313 2.0 6.0 0.00 0.00 0.00 87 1011.0
20260509184853 57 303 3.0 11.0 0.00 0.00 0.00 86 1011.0
20260509184602 57 236 5.0 11.0 0.00 0.00 0.00 86 1011.1
20260509183841 57 263 5.0 11.0 0.00 0.00 0.00 85 1011.3
20260509183343 57 265 5.0 11.0 0.00 0.00 0.00 83 1011.3
20260509182844 57 260 4.0 10.0 0.00 0.00 0.00 82 1011.3
20260509182344 57 224 6.0 12.0 0.00 0.00 0.00 81 1011.4
20260509181848 57 275 6.0 12.0 0.00 0.00 0.00 80 1011.3
20260509181339 58 264 5.0 10.0 0.00 0.00 0.00 80 1011.3
20260509180839 58 281 7.0 12.0 0.00 0.00 0.00 80 1011.4
20260509180339 58 285 6.0 12.0 0.00 0.00 0.00 80 1011.4
20260509175840 58 284 5.0 11.0 0.00 0.00 0.00 80 1011.5
20260509175339 58 257 6.0 10.0 0.00 0.00 0.00 81 1011.4
20260509174839 58 267 6.0 11.0 0.00 0.00 0.00 82 1011.4
20260509174339 58 305 5.0 11.0 0.00 0.00 0.00 82 1011.4
20260509174328 58 269 4.0 9.0 0.00 0.00 0.00 84 1011.4
20260509173340 58 262 4.0 9.0 0.00 0.00 0.00 84 1011.4
20260509172830 58 245 5.0 10.0 0.00 0.00 0.00 84 1011.4
20260509172331 58 252 5.0 10.0 0.00 0.00 0.00 84 1011.5
20260509171830 58 259 4.0 10.0 0.00 0.00 0.00 84 1011.5
20260509171547 58 225 4.0 10.0 0.00 0.00 0.00 84 1011.6
20260509170829 59 271 4.0 8.0 0.00 0.00 0.00 82 1011.6
20260509170328 59 232 3.0 7.0 0.00 0.00 0.00 80 1011.6
20260509165830 59 242 2.0 4.0 0.00 0.00 0.00 79 1011.4
20260509165327 59 237 2.0 4.0 0.00 0.00 0.00 80 1011.4
20260509164827 59 237 2.0 4.0 0.00 0.00 0.00 80 1011.4
20260509164329 59 232 2.0 4.0 0.00 0.00 0.00 79 1011.4
20260509163825 59 234 0.0 4.0 0.00 0.00 0.00 79 1011.4
20260509163550 59 226 0.0 0.0 0.00 0.00 0.00 79 1011.4
20260509162826 59 273 0.0 0.0 0.00 0.00 0.00 78 1011.4
20260509162323 60 273 0.0 0.0 0.00 0.00 0.00 77 1011.4
20260509161820 60 279 0.0 0.0 0.00 0.00 0.00 76 1011.3
20260509161542 60 279 0.0 0.0 0.00 0.00 0.00 76 1011.4
20260509160820 60 279 0.0 1.0 0.00 0.00 0.00 76 1011.4
20260509160316 60 279 1.0 3.0 0.00 0.00 0.00 76 1011.4
20260509155815 59 192 2.0 7.0 0.00 0.00 0.00 76 1011.6
20260509155316 60 248 3.0 7.0 0.00 0.00 0.00 79 1011.8
20260509154816 60 227 2.0 6.0 0.00 0.00 0.00 80 1011.8
20260509154314 60 180 1.0 4.0 0.00 0.00 0.00 81 1012.1
20260509153814 60 213 1.0 4.0 0.00 0.00 0.00 80 1012.1
20260509153316 60 182 2.0 6.0 0.00 0.00 0.00 80 1012.2
20260509153039 59 183 2.0 6.0 0.00 0.00 0.00 81 1012.3
20260509152316 59 171 3.0 5.0 0.00 0.00 0.00 81 1012.3
20260509152037 59 221 4.0 7.0 0.00 0.00 0.00 81 1012.2
20260509151311 59 217 3.0 8.0 0.00 0.00 0.00 81 1012.3
20260509150810 60 175 4.0 8.0 0.00 0.00 0.00 82 1012.4
20260509150312 59 212 3.0 8.0 0.00 0.00 0.00 81 1012.3
20260509150041 60 123 3.0 7.0 0.00 0.00 0.00 82 1012.6
20260509145311 59 189 3.0 7.0 0.00 0.00 0.00 81 1012.3
20260509145030 59 231 4.0 9.0 0.00 0.00 0.00 81 1012.2
20260509144312 59 186 4.0 10.0 0.00 0.00 0.00 80 1012.3
20260509143807 60 176 4.0 11.0 0.00 0.00 0.00 79 1012.3
20260509143753 60 194 4.0 11.0 0.00 0.00 0.00 79 1012.3
20260509143030 60 200 4.0 11.0 0.00 0.00 0.00 78 1012.1